Location: ??????
(55.6130°N, 37.7882°E)
Time: 04:57:56
(UTC+00:00)

Gbstr 26 Del rocket - Pass Details

Date: 14 April 2024
Orbit: 491 x 1240 km, 51.8° (Epoch: 22 May)

Event Time Altitude Azimuth Distance (km) Brightness Sun altitude
Exits shadow 00:32:53 22° 199° (SSW) 1,241 4.1 -14.5°
Maximum altitude 00:34:34 30° 158° (SSE) 973 3.9 -14.4°
Drops below altitude 10° 00:37:58 10° 96° (E) 1,722 6.0 -14.0°
Sets 00:40:13 0° 85° (E) 2,579 7.2 -13.8°
